TimeEDT,TemperatureF,Dew PointF,Humidity,Sea Level PressureIn,VisibilityMPH,Wind Direction,Wind SpeedMPH,Gust SpeedMPH,PrecipitationIn,Events,Conditions,WindDirDegrees,DateUTC
12:15 AM,73.4,71.6,94,30.00,5.0,Calm,Calm,-,N/A,,Clear,0,2013-09-09 04:15:00
12:35 AM,73.4,71.6,94,30.01,7.0,Calm,Calm,-,N/A,,Scattered Clouds,0,2013-09-09 04:35:00
12:55 AM,73.4,71.6,94,30.01,10.0,Calm,Calm,-,N/A,,Scattered Clouds,0,2013-09-09 04:55:00
1:15 AM,73.4,71.6,94,30.01,10.0,Calm,Calm,-,N/A,,Scattered Clouds,0,2013-09-09 05:15:00
1:35 AM,75.2,71.6,89,30.01,10.0,Calm,Calm,-,N/A,,Clear,0,2013-09-09 05:35:00
1:55 AM,73.4,71.6,94,30.01,10.0,Calm,Calm,-,N/A,,Clear,0,2013-09-09 05:55:00
2:15 AM,73.4,71.6,94,30.01,7.0,Calm,Calm,-,N/A,,Clear,0,2013-09-09 06:15:00
2:35 AM,71.6,71.6,100,30.01,7.0,Calm,Calm,-,N/A,,Clear,0,2013-09-09 06:35:00
2:55 AM,71.6,71.6,100,30.00,7.0,Calm,Calm,-,N/A,,Clear,0,2013-09-09 06:55:00
3:15 AM,71.6,69.8,94,30.00,5.0,Calm,Calm,-,N/A,,Clear,0,2013-09-09 07:15:00
3:35 AM,71.6,71.6,100,30.00,5.0,Calm,Calm,-,N/A,,Clear,0,2013-09-09 07:35:00
3:55 AM,71.6,71.6,100,30.01,5.0,Calm,Calm,-,N/A,,Clear,0,2013-09-09 07:55:00
4:15 AM,71.6,71.6,100,30.01,5.0,Calm,Calm,-,N/A,,Clear,0,2013-09-09 08:15:00
4:35 AM,71.6,69.8,94,30.01,5.0,Calm,Calm,-,N/A,,Clear,0,2013-09-09 08:35:00
4:55 AM,71.6,69.8,94,30.01,4.0,Calm,Calm,-,N/A,,Clear,0,2013-09-09 08:55:00
5:15 AM,71.6,69.8,94,30.01,4.0,Calm,Calm,-,N/A,,Clear,0,2013-09-09 09:15:00
5:35 AM,69.8,69.8,100,30.01,3.0,Calm,Calm,-,N/A,,Clear,0,2013-09-09 09:35:00
5:55 AM,69.8,69.8,100,30.02,2.5,Calm,Calm,-,N/A,,Scattered Clouds,0,2013-09-09 09:55:00
6:15 AM,69.8,69.8,100,30.02,4.0,Calm,Calm,-,N/A,,Mostly Cloudy,0,2013-09-09 10:15:00
6:35 AM,69.8,69.8,100,30.03,4.0,Calm,Calm,-,N/A,,Overcast,0,2013-09-09 10:35:00
6:55 AM,71.6,71.6,100,30.03,5.0,Calm,Calm,-,N/A,,Overcast,0,2013-09-09 10:55:00
7:15 AM,71.6,71.6,100,30.04,2.5,Calm,Calm,-,N/A,,Overcast,0,2013-09-09 11:15:00
7:35 AM,71.6,71.6,100,30.04,2.5,Calm,Calm,-,N/A,,Scattered Clouds,0,2013-09-09 11:35:00
7:55 AM,71.6,71.6,100,30.05,3.0,Calm,Calm,-,N/A,,Clear,0,2013-09-09 11:55:00
8:15 AM,73.4,71.6,94,30.05,4.0,Calm,Calm,-,N/A,,Clear,0,2013-09-09 12:15:00
8:35 AM,73.4,71.6,94,30.06,5.0,Calm,Calm,-,N/A,,Clear,0,2013-09-09 12:35:00
8:55 AM,77.0,71.6,83,30.06,7.0,Calm,Calm,-,N/A,,Clear,0,2013-09-09 12:55:00
9:15 AM,77.0,71.6,83,30.06,10.0,Calm,Calm,-,N/A,,Clear,0,2013-09-09 13:15:00
9:35 AM,78.8,71.6,78,30.07,10.0,Calm,Calm,-,N/A,,Clear,0,2013-09-09 13:35:00
9:55 AM,80.6,71.6,74,30.07,10.0,Calm,Calm,-,N/A,,Clear,0,2013-09-09 13:55:00
10:15 AM,82.4,71.6,70,30.08,10.0,Calm,Calm,-,N/A,,Clear,0,2013-09-09 14:15:00
10:35 AM,82.4,71.6,70,30.08,10.0,East,3.5,-,N/A,,Clear,90,2013-09-09 14:35:00
11:35 AM,87.8,71.6,58,30.09,10.0,ESE,4.6,-,N/A,,Clear,110,2013-09-09 15:35:00
11:55 AM,87.8,71.6,58,30.09,10.0,ENE,5.8,-,N/A,,Clear,70,2013-09-09 15:55:00
12:15 PM,87.8,69.8,55,30.09,10.0,NE,3.5,-,N/A,,Clear,40,2013-09-09 16:15:00
12:35 PM,89.6,69.8,52,30.09,10.0,East,3.5,-,N/A,,Clear,80,2013-09-09 16:35:00
12:55 PM,89.6,69.8,52,30.09,10.0,SSE,4.6,-,N/A,,Clear,150,2013-09-09 16:55:00
1:15 PM,89.6,69.8,52,30.09,10.0,ESE,5.8,-,N/A,,Scattered Clouds,110,2013-09-09 17:15:00
1:35 PM,89.6,69.8,52,30.08,10.0,North,4.6,-,N/A,,Overcast,10,2013-09-09 17:35:00
1:55 PM,87.8,68.0,52,30.08,10.0,Calm,Calm,-,N/A,,Mostly Cloudy,0,2013-09-09 17:55:00
2:15 PM,87.8,69.8,55,30.08,10.0,East,5.8,-,N/A,,Scattered Clouds,80,2013-09-09 18:15:00
2:35 PM,91.4,69.8,49,30.07,10.0,SE,4.6,-,N/A,,Scattered Clouds,130,2013-09-09 18:35:00
2:55 PM,89.6,69.8,52,30.07,10.0,SSE,3.5,-,N/A,,Mostly Cloudy,160,2013-09-09 18:55:00
3:15 PM,91.4,69.8,49,30.06,10.0,SE,8.1,-,N/A,,Mostly Cloudy,130,2013-09-09 19:15:00
3:35 PM,87.8,69.8,55,30.06,10.0,Calm,Calm,-,N/A,,Mostly Cloudy,0,2013-09-09 19:35:00
3:55 PM,89.6,71.6,55,30.06,10.0,NE,4.6,-,N/A,,Mostly Cloudy,50,2013-09-09 19:55:00
4:15 PM,87.8,71.6,58,30.06,10.0,Calm,Calm,-,N/A,,Overcast,0,2013-09-09 20:15:00
4:35 PM,87.8,71.6,58,30.06,10.0,East,6.9,-,N/A,Rain,Light Rain,100,2013-09-09 20:35:00
4:55 PM,86.0,73.4,66,30.06,10.0,East,4.6,-,N/A,,Overcast,100,2013-09-09 20:55:00
5:15 PM,86.0,71.6,62,30.06,10.0,East,4.6,-,N/A,,Mostly Cloudy,100,2013-09-09 21:15:00
5:35 PM,86.0,71.6,62,30.06,10.0,ESE,5.8,-,N/A,,Scattered Clouds,120,2013-09-09 21:35:00
5:55 PM,87.8,71.6,58,30.06,10.0,ESE,4.6,-,N/A,,Mostly Cloudy,110,2013-09-09 21:55:00
6:15 PM,87.8,71.6,58,30.06,10.0,ESE,5.8,-,N/A,,Overcast,120,2013-09-09 22:15:00
6:35 PM,87.8,71.6,58,30.05,10.0,SE,4.6,-,N/A,,Overcast,140,2013-09-09 22:35:00
6:55 PM,86.0,71.6,62,30.05,10.0,South,3.5,-,N/A,,Scattered Clouds,170,2013-09-09 22:55:00
7:15 PM,82.4,73.4,74,30.06,10.0,Calm,Calm,-,N/A,,Clear,0,2013-09-09 23:15:00
7:35 PM,80.6,73.4,79,30.06,10.0,Calm,Calm,-,N/A,,Clear,0,2013-09-09 23:35:00
7:55 PM,78.8,73.4,83,30.06,10.0,Calm,Calm,-,N/A,,Clear,0,2013-09-09 23:55:00
8:15 PM,77.0,75.2,94,30.07,10.0,Calm,Calm,-,N/A,,Mostly Cloudy,0,2013-09-10 00:15:00
8:35 PM,77.0,75.2,94,30.08,10.0,NE,3.5,-,N/A,,Mostly Cloudy,50,2013-09-10 00:35:00
8:55 PM,77.0,73.4,89,30.08,7.0,Calm,Calm,-,N/A,,Mostly Cloudy,0,2013-09-10 00:55:00
9:15 PM,77.0,73.4,89,30.08,10.0,ESE,3.5,-,N/A,,Mostly Cloudy,120,2013-09-10 01:15:00
9:35 PM,77.0,73.4,89,30.09,10.0,Calm,Calm,-,N/A,,Scattered Clouds,0,2013-09-10 01:35:00
9:55 PM,78.8,73.4,83,30.10,10.0,SE,8.1,-,N/A,,Mostly Cloudy,140,2013-09-10 01:55:00
10:15 PM,80.6,71.6,74,30.12,10.0,SE,8.1,-,N/A,,Mostly Cloudy,140,2013-09-10 02:15:00
10:35 PM,78.8,71.6,78,30.13,10.0,SSE,5.8,-,N/A,,Scattered Clouds,150,2013-09-10 02:35:00
10:55 PM,78.8,71.6,78,30.13,10.0,SSE,5.8,-,N/A,,Scattered Clouds,150,2013-09-10 02:55:00
11:15 PM,77.0,71.6,83,30.14,10.0,SSE,5.8,-,N/A,,Scattered Clouds,150,2013-09-10 03:15:00
11:35 PM,77.0,71.6,83,30.14,10.0,SSE,5.8,-,N/A,,Clear,160,2013-09-10 03:35:00
11:55 PM,77.0,71.6,83,30.14,10.0,SE,3.5,-,N/A,,Clear,140,2013-09-10 03:55:00